Flag for Norway Weather past 2 weeks in Førde, Norway

Now
48 °F

Scattered showers. Broken clouds.


Feels Like: 45 °F
Forecast: 44 / 54 °F
Wind: 7 mph from Southeast

Location: Forde / Bringeland

Current Time: May 28, 2015 at 2:11:58 PM

Latest Report: May 28, 2015 at 1:50 PM


Visibility: N/A

Pressure: 29.45 "Hg

Humidity: 62%

Dew point: 36 °F

Location of FørdeLocation

Historic Weather in Førde — Graph

°F

Førde temperature yesterday

Maximum temperature yesterday: 46 °F (at 3:20 PM)
Minimum temperature yesterday: 37 °F (at 5:50 AM)
Average temperature yesterday: 42 °F

Past Weeks' High & Low Weather Summary

 TemperatureHumidityPressure
High54 °F (May 15, 3:50 PM)100% (May 17, 10:20 PM)30.07 "Hg (May 17, 10:20 PM)
Low34 °F (May 22, 2:50 PM)32% (May 15, 1:20 PM)29.33 "Hg (May 19, 9:20 AM)
Average43 °F76%29.78 "Hg
* Reported May 13 12:50 PM — May 28 12:50 PM, Førde, Weather by CustomWeather, © 2015

Note: Actual official high and low records may vary slightly from our data, if they occured in-between our weather recording intervals... More about our weather records

Advertising

Førde weather history for previous 24 hours

 ConditionsComfort  
Time TempWeatherWind HumidityBarometerVisibility
12:50 PM
Thu, May 28
48 °FBroken clouds.7 mph62%29.47 "HgN/A
11:50 AM48 °FBroken clouds.8 mph62%29.47 "HgN/A
11:20 AM48 °FBroken clouds.7 mph66%29.50 "HgN/A
10:50 AM48 °FBroken clouds.6 mph66%29.50 "HgN/A
10:20 AM46 °FScattered showers. Broken clouds.7 mph66%29.50 "HgN/A
9:50 AM45 °FSprinkles. Broken clouds.3 mph71%29.53 "HgN/A
9:20 AM45 °FSprinkles. Broken clouds.5 mph71%29.53 "HgN/A
8:50 AM45 °FSprinkles. Cloudy.8 mph71%29.53 "HgN/A
8:20 AM45 °FQuite cool.2 mph76%29.53 "HgN/A
7:50 AM41 °FQuite cool.5 mph87%29.56 "HgN/A
7:20 AM41 °FQuite cool.6 mph87%29.56 "HgN/A
6:50 AM41 °FQuite cool.6 mph87%29.56 "HgN/A
6:20 AM41 °FQuite cool.1 mph87%29.59 "HgN/A
5:50 AM41 °FQuite cool.2 mph87%29.59 "HgN/A
10:50 PM
Wed, May 27
41 °FSprinkles. Partly sunny.2 mph93%29.80 "HgN/A
10:20 PM41 °FLight rain. Partly sunny.2 mph93%29.83 "HgN/A
9:50 PM41 °FLight rain. Broken clouds.5 mph93%29.83 "HgN/A
9:20 PM43 °FSprinkles. Broken clouds.2 mph87%29.83 "HgN/A
8:50 PM41 °FSprinkles. Broken clouds.3 mph93%29.83 "HgN/A
8:20 PM43 °FSprinkles. Partly sunny.7 mph87%29.83 "HgN/A
7:50 PM43 °FSprinkles. Broken clouds.8 mph87%29.83 "HgN/A
7:20 PM45 °FScattered showers. Broken clouds.9 mph76%29.83 "HgN/A
6:50 PM45 °FSprinkles. Broken clouds.8 mph87%29.86 "HgN/A
6:20 PM45 °FScattered showers. Broken clouds.7 mph81%29.86 "HgN/A
5:50 PM46 °FScattered showers. Broken clouds.8 mph76%29.86 "HgN/A
4:50 PM45 °FScattered showers. Broken clouds.3 mph87%29.89 "HgN/A
4:20 PM46 °FSprinkles. Broken clouds.8 mph76%29.89 "HgN/A
3:50 PM46 °FScattered showers. Broken clouds.9 mph76%29.89 "HgN/A
3:20 PM46 °FScattered showers. Broken clouds.9 mph76%29.89 "HgN/A
2:20 PM43 °FScattered showers. Broken clouds.6 mph93%29.89 "HgN/A
Weather by CustomWeather, © 2015

See weather overviewHow to use our weather pages